TIME,DELAY(SENSOR),PRES,OXYGEN,RAWTEMP,T(OPTODE),TCPHASE,FLUOR,BETA(BETA700),BETA(BETA412),BETA(BETA440),CDOM,C(CSC),ED(ED412.40),ED(ED444.00),ED(ED489.70),ED(ED554.30),LU(LU411.80),LU(LU443.40),LU(LU489.60),LU(LU554.10),COMP,TILTX,TILTY,CHECK
1351912900,5808,833.6699829101562000,42.2005500793457000,658.4141845703125000,4.6801657676696780,54.6493110656738300,53,100,88,79,80,15226,2147751488,2147421888,2148006180,2147872118,2147639012,2147062710,2148260982,2147194816,2042,4,13,31153
1351916496,5809,896.4600219726562000,44.8570404052734400,662.9625244140625000,4.5303940773010250,54.3105392456054700,53,99,85,79,81,15223,2147756498,2147419474,2148007488,2147873508,2147640402,2147055049,2148257920,2147199241,93,5,13,45450
1351920096,5809,896.8800048828125000,45.3730583190918000,664.4885253906250000,4.4800930023193360,54.2551689147949200,53,100,90,79,81,15226,2147756068,2147420763,2148008502,2147871140,2147642313,2147064265,2148263323,2147195328,3425,4,13,33350
1351923696,5810,929.7800292968750000,45.7884597778320300,666.3695068359375000,4.4180531501770020,54.2206306457519500,52,99,85,78,80,15225,2147757824,2147419446,2148008365,2147871698,2147643236,2147063972,2148260909,2147192777,707,4,13,19917
1351927296,5807,928.4600219726562000,46.1901092529296900,667.1901245117188000,4.3909759521484375,54.1686592102050800,53,99,85,80,81,15227,2147757604,2147422006,2148009234,2147874386,2147643163,2147056402,2148263414,2147194907,110,4,13,42273
1351930896,5809,937.2000122070312000,45.8296813964843750,666.5444946289062000,4.4122791290283200,54.2173881530761700,53,98,91,79,81,15225,2147758793,2147420818,2148006427,2147876086,2147642212,2147057581,2148260205,2147194550,126,4,13,45432
1351934496,5812,959.6099853515625000,46.7056198120117200,669.6041870117188000,4.3112721443176270,54.1244697570800800,53,98,86,79,80,15225,2147758226,2147420086,2148008832,2147872722,2147641097,2147060269,2148262710,2147198829,516,4,13,49892
1351938096,5810,964.5999755859375000,46.5088310241699200,669.6873779296875000,4.3085250854492190,54.1526794433593750,53,98,86,79,81,15224,2147755931,2147419099,2148009417,2147871085,2147639908,2147058368,2148261211,2147195154,595,5,13,21031
1351941696,5806,976.3900146484375000,46.3860092163085940,668.0507202148438000,4.3625698089599610,54.1557693481445300,53,96,89,79,82,15223,2147757915,2147422701,2148005275,2147871606,2147641792,2147064548,2148258925,2147198829,3282,4,13,33939
1351945296,5811,961.8499755859375000,46.4760894775390600,669.8521118164062000,4.3030848503112790,54.1625900268554700,52,99,85,78,81,15225,2147758473,2147422198,2148006491,2147874148,2147640969,2147064082,2148258313,2147196626,1252,4,13,1652
1351948896,5810,972.6099853515625000,47.0470199584960940,670.5504760742188000,4.2800121307373050,54.0897903442382800,52,99,87,79,80,15223,2147756013,2147418432,2148009270,2147875776,2147641691,2147059309,2148257490,2147199085,617,4,13,54804
1351952496,5806,973.3200073242188000,46.8532714843750000,669.9714965820312000,4.2991390228271480,54.1083908081054700,52,101,88,78,81,15227,2147756205,2147418605,2148005577,2147873664,2147640585,2147059291,2148262930,2147197705,3220,4,13,20478
1351956096,5810,968.2000122070312000,46.5624694824218750,670.5391235351562000,4.2803878784179690,54.1563682556152340,53,101,89,79,82,15221,2147758070,2147421248,2148007131,2147872576,2147642569,2147059282,2148262180,2147195062,338,4,13,18929
1351959696,5811,968.4400024414062000,47.2461891174316400,671.3380737304688000,4.2539830207824710,54.0712318420410160,53,98,88,78,81,15222,2147754779,2147421696,2148009526,2147872996,2147639524,2147062546,2148261814,2147194953,227,4,13,24527
1351963296,5809,964.3099975585938000,47.6392707824707000,672.3380126953125000,4.2209339141845700,54.0309600830078100,53,99,89,80,81,15223,2147753883,2147420772,2148008694,2147874413,2147641883,2147056987,2148260480,2147197677,310,4,13,38166
1351966896,5810,992.7600097656250000,47.7651405334472660,673.4437866210938000,4.1843662261962890,54.0228614807128900,53,97,88,79,81,15220,2147756361,2147418916,2148006994,2147872082,2147644653,2147053915,2148265170,2147196955,96,4,13,51753
1351970496,5808,995.7600097656250000,48.0877914428710940,673.7255859375000000,4.1750469207763670,53.9833488464355500,52,100,84,79,82,15223,2147756873,2147421494,2148008530,2147874386,2147642715,2147059117,2148263488,2147195666,282,4,13,19032
1351974096,5807,995.3499755859375000,47.5264282226562500,673.7484741210938000,4.1742901802062990,54.0622596740722660,52,98,86,79,81,15222,2147756004,2147422747,2148007524,2147874267,2147641435,2147059328,2148264128,2147195949,109,4,13,42530
1351977696,5812,996.6300048828125000,48.2787094116210940,673.6826782226562000,4.1764678955078125,53.9572486877441400,52,100,90,78,81,15220,2147756077,2147418386,2148002642,2147873947,2147638857,2147055332,2148260873,2147196982,130,4,13,44812
1351981296,5809,994.6900024414062000,48.2480888366699200,673.6884155273438000,4.1762809753417970,53.9594688415527340,53,98,87,78,80,15219,2147754422,2147421760,2148005257,2147870080,2147643904,2147057572,2148260077,2147198070,129,4,13,33115
1351984896,5808,994.3099975585938000,48.4010086059570300,674.5698852539062000,4.1471180915832520,53.9485397338867200,52,99,85,78,79,15222,2147756708,2147418678,2148008000,2147873362,2147641170,2147067337,2148264457,2147196772,276,4,13,3689
1351988496,5808,1000.2899780273438000,48.4208717346191400,674.6987304687500000,4.1428570747375490,53.9506111145019500,54,101,86,80,81,15221,2147760740,2147422537,2148007058,2147871661,2147641206,2147057920,2148262747,2147198710,97,5,13,55681
1351992096,5808,993.1099853515625000,47.8326988220214840,673.8170166015625000,4.1720237731933590,54.0185203552246100,53,108,90,79,81,15217,2147760310,2147422208,2148004946,2147872658,2147642605,2147059940,2148270244,2147198820,155,4,13,38112
1351995696,5810,996.7500000000000000,48.5748481750488300,674.3750000000000000,4.1535658836364750,53.9223289489746100,53,99,86,80,81,15209,2147759323,2147420470,2148009490,2147872411,2147642624,2147056740,2148264292,2147196068,522,4,13,2809
1351999296,5812,998.5700073242188000,47.9313697814941400,673.7236938476562000,4.1751117706298830,54.0024299621582000,52,97,89,80,80,15215,2147756964,2147421769,2148008576,2147872292,2147641225,2147060416,2148263378,2147196672,214,4,13,14855
1352002896,5812,1000.2600097656250000,48.0757598876953100,673.5025024414062000,4.1824259757995605,53.9817199707031250,52,97,86,80,80,15216,2147755776,2147423168,2148009243,2147872502,2147642925,2147059035,2148258633,2147196443,3335,4,13,16299
1352006496,5809,1003.9600219726562000,47.9386787414550800,673.6375732421875000,4.1779580116271970,54.0033302307128900,52,98,91,80,80,15215,2147756406,2147419830,2148007725,2147874194,2147641545,2147059748,2148264530,2147195300,104,4,13,50750
1352010096,5809,996.9000244140625000,48.2665214538574200,674.1680908203125000,4.1604099273681640,53.9626312255859400,52,99,88,78,82,15216,2147757037,2147419611,2148009417,2147873755,2147639506,2147059510,2148261513,2147193874,186,4,13,35392
1352013696,5805,1003.7100219726562000,48.1310806274414060,673.2971801757812000,4.1892151832580570,53.9707908630371100,53,97,88,78,81,15216,2147757238,2147419794,2148005988,2147873700,2147642898,2147060169,2148259309,2147194377,3409,4,13,288
1352017296,5809,1009.5200195312500000,47.7681503295898440,673.0333862304688000,4.1979389190673830,54.0179481506347660,52,98,87,80,82,15213,2147756352,2147419346,2148009773,2147872658,2147642962,2147062436,2148265764,2147197147,3155,4,13,9242
1352020896,5810,1008.0999755859375000,47.4153900146484400,672.2286987304688000,4.2245459556579590,54.0586891174316400,53,102,89,78,81,15215,2147759213,2147419730,2148008960,2147871488,2147643218,2147068169,2148259401,2147198930,102,4,13,17449
1352024496,5808,1003.4500122070312000,47.1931304931640600,672.4152832031250000,4.2183780670166020,54.0938301086425800,52,98,87,80,81,15214,2147753984,2147419154,2148012598,2147872640,2147642578,2147062445,2148262720,2147194166,3375,4,13,39665
1352028096,5809,1003.4099731445312000,47.4431991577148440,673.5474853515625000,4.1809368133544920,54.0695991516113300,53,98,83,79,81,15214,2147758454,2147422409,2148010240,2147872758,2147643392,2147058422,2148263451,2147196946,3273,4,13,33589
1352031696,5806,1008.3800048828125000,46.9920883178710940,672.8967895507812000,4.2024588584899900,54.1266517639160160,52,100,89,79,81,15214,2147758253,2147420123,2148006454,2147872950,2147642624,2147054555,2148261312,2147196672,145,4,13,46448
1352035296,5812,1003.8800048828125000,47.5118598937988300,673.5645751953125000,4.1803722381591800,54.0595703125000000,53,99,86,78,82,15215,2147760000,2147421933,2148007954,2147872996,2147644992,2147061833,2148259904,2147196086,364,4,13,493
1352038896,5808,999.7600097656250000,47.6130981445312500,673.6533203125000000,4.1774411201477050,54.0472908020019500,52,101,85,80,82,15204,2147756580,2147421284,2148008512,2147872000,2147643620,2147061814,2148262107,2147199332,110,4,13,51134
1352042496,5810,999.7000122070312000,47.7984695434570300,673.6558837890625000,4.1773548126220700,54.0217399597168000,52,100,84,79,81,15212,2147757412,2147420269,2148008530,2147871780,2147644105,2147060187,2148264685,2147196205,56,5,13,51632
1352046096,5809,997.9899902343750000,47.8516883850097660,673.5830078125000000,4.1797637939453125,54.0166015625000000,53,99,90,78,81,15214,2147757760,2147421147,2148007835,2147870390,2147643684,2147061586,2148262363,2147193737,3499,4,13,65371
1352049696,5807,1005.4500122070312000,47.7424201965332000,673.7902221679688000,4.1729130744934080,54.0323600769043000,52,101,89,78,81,15211,2147756598,2147424292,2148008603,2147870070,2147640502,2147061504,2148262226,2147195172,110,4,13,49650
1352053296,5809,995.4500122070312000,48.0486106872558600,674.0770874023438000,4.1634202003479000,53.9953918457031250,52,98,87,79,81,15213,2147756452,2147421339,2148009014,2147873691,2147642377,2147055250,2148259977,2147195501,656,4,13,23456
1352056896,5809,995.5599975585938000,48.0400390625000000,675.3067016601562000,4.1227378845214840,54.0114898681640600,53,99,86,81,81,15212,2147754029,2147423469,2148008877,2147871917,2147643520,2147059346,2148264841,2147197092,89,4,13,20225
1352058056,5810,998.8099975585938000,48.2476196289062500,675.9484252929688000,4.1014981269836430,53.9907493591308600,52,109,90,79,81,15218,2147757184,2147420068,2148010944,2147870665,2147642550,2147057618,2148262802,2147198793,3426,4,13,40889
